Home   Weather   Suhl   Past weeks

Flag for Germany Past Weather in Suhl, Thuringia, Germany — Yesterday and Last 2 Weeks

Now
43 °F

Partly cloudy.


Feels Like: 37 °F
Forecast: 33 / 41 °F
Wind: 9 mph from Southwest

Location: Erfurt-Bindersleben

Current Time: Dec 10, 2016 at 11:25:47 pm

Latest Report: Dec 10, 2016 at 10:50 pm


Visibility: N/A

Pressure: 30.09 "Hg

Humidity: 87%

Dew Point: 39 °F

Location of SuhlLocation

Past Weather in Suhl — Graph

°F

Suhl Temperature Yesterday

Maximum temperature yesterday: 45 °F (at 11:50 am)
Minimum temperature yesterday: 34 °F (at 12:20 am)
Average temperature yesterday: 42 °F

High & Low Weather Summary for the Past Weeks

 TemperatureHumidityPressure
High50 °F (Dec 10, 1:20 pm)100% (Nov 25, 10:20 pm)30.54 "Hg (Nov 25, 10:20 pm)
Low14 °F (Dec 5, 3:50 am)53% (Dec 8, 12:50 pm)29.98 "Hg (Nov 27, 12:50 am)
Average31 °F89%30.29 "Hg
* Reported Nov 25 10:20 pm — Dec 10 10:20 pm, Suhl, Weather by CustomWeather, © 2016

Note: Actual official high and low records may vary slightly from our data, if they occured in-between our weather recording intervals... More about our weather records

Advertising

Suhl Weather History for the Previous 24 Hours

Scroll right to see more
 ConditionsComfort  
Time TempWeatherWind HumidityBarometerVisibility
10:20 pm
Sat, Dec 10
43 °FPartly cloudy.13 mph81%30.09 "HgN/A
9:50 pm43 °FPartly cloudy.12 mph81%30.12 "HgN/A
9:20 pm43 °FPassing clouds.12 mph81%30.12 "HgN/A
8:50 pm43 °FPassing clouds.10 mph81%30.12 "HgN/A
8:20 pm45 °FPassing clouds.13 mph76%30.15 "HgN/A
7:50 pm45 °FPassing clouds.12 mph76%30.15 "HgN/A
7:20 pm43 °FClear.13 mph81%30.15 "Hg10 mi
6:50 pm43 °FClear.12 mph81%30.15 "Hg10 mi
6:20 pm45 °FClear.13 mph76%30.15 "Hg10 mi
5:50 pm45 °FClear.13 mph76%30.15 "Hg10 mi
5:20 pm45 °FClear.10 mph76%30.15 "Hg10 mi
4:50 pm45 °FClear.10 mph76%30.18 "Hg10 mi
4:20 pm46 °FClear.7 mph71%30.15 "Hg10 mi
3:50 pm48 °FPassing clouds.5 mph71%30.18 "HgN/A
3:20 pm48 °FSunny.7 mph76%30.18 "Hg10 mi
2:50 pm50 °FSunny.8 mph67%30.18 "Hg10 mi
2:20 pm50 °FPassing clouds.3 mph67%30.18 "HgN/A
1:50 pm50 °FSunny.14 mph71%30.15 "Hg10 mi
1:20 pm50 °FSunny.14 mph67%30.18 "Hg10 mi
12:50 pm48 °FSunny.13 mph71%30.18 "Hg10 mi
12:20 pm48 °FSunny.14 mph71%30.18 "Hg10 mi
11:50 am48 °FSunny.13 mph71%30.21 "Hg10 mi
11:20 am48 °FSunny.9 mph71%30.21 "Hg10 mi
10:50 am46 °FSunny.12 mph76%30.21 "Hg10 mi
10:20 am46 °FSunny.14 mph82%30.21 "Hg10 mi
9:50 am45 °FSunny.17 mph81%30.21 "Hg10 mi
9:20 am45 °FSunny.8 mph81%30.21 "Hg10 mi
8:50 am45 °FSunny.14 mph81%30.21 "Hg10 mi
8:20 am43 °FSunny.13 mph81%30.21 "Hg10 mi
7:50 am43 °FClear.9 mph81%30.21 "Hg10 mi
7:20 am39 °FClear.12 mph93%30.21 "Hg10 mi
6:50 am39 °FClear.10 mph93%30.21 "Hg10 mi
6:20 am37 °FClear.12 mph100%30.21 "Hg10 mi
5:50 am37 °FClear.12 mph100%30.24 "Hg10 mi
5:20 am39 °FClear.12 mph93%30.24 "Hg10 mi
4:50 am41 °FClear.12 mph93%30.24 "Hg10 mi
4:20 am43 °FClear.14 mph93%30.24 "Hg10 mi
3:50 am41 °FClear.12 mph93%30.24 "Hg10 mi
3:20 am41 °FClear.12 mph93%30.24 "Hg10 mi
2:50 am43 °FClear.13 mph87%30.27 "Hg10 mi
2:20 am39 °FClear.12 mph93%30.27 "Hg10 mi
1:50 am43 °FClear.16 mph87%30.27 "Hg10 mi
1:20 am45 °FClear.13 mph87%30.27 "Hg10 mi
12:50 am43 °FClear.14 mph93%30.27 "Hg10 mi
12:20 am45 °FPassing clouds.16 mph87%30.27 "HgN/A
11:50 pm
Fri, Dec 9
45 °FPassing clouds.13 mph87%30.30 "HgN/A
11:20 pm45 °FPassing clouds.15 mph87%30.30 "HgN/A
Weather by CustomWeather, © 2016

See weather overviewHow to use our weather pages